Date,TemperatureHighF,TemperatureAvgF,TemperatureLowF,DewpointHighF,DewpointAvgF,DewpointLowF,HumidityHigh,HumidityAvg,HumidityLow,PressureMaxIn,PressureMinIn,WindSpeedMaxMPH,WindSpeedAvgMPH,GustSpeedMaxMPH,PrecipitationSumIn
2013-4-1,80.3,76.8,74.0,67.8,65.8,64.5,75,69,62,30.03,29.96,13,4,14,0.00
2013-4-2,89.0,77.1,64.7,67.1,65.0,62.0,97,69,46,30.10,30.01,10,2,10,0.00
2013-4-3,87.3,82.6,74.3,69.0,67.5,65.4,83,61,51,30.07,29.99,22,4,22,0.00
2013-4-4,86.0,78.0,66.7,71.9,69.3,64.9,96,76,57,30.03,29.91,25,6,25,0.84
2013-4-5,72.7,68.6,66.0,67.8,65.5,63.3,97,90,79,29.97,29.83,10,0,11,1.30
2013-4-6,82.2,72.1,58.6,65.6,61.2,56.5,94,70,55,30.07,29.97,1,0,1,0.00
2013-4-7,80.3,75.2,69.4,67.2,64.0,61.9,89,69,57,30.15,30.06,11,1,11,0.02
2013-4-8,88.0,81.6,64.4,63.5,60.6,55.6,90,50,35,30.13,30.06,12,2,12,0.00
2013-4-9,84.5,79.5,69.1,69.6,66.9,63.7,91,66,51,30.15,30.08,14,3,14,0.00
2013-4-10,86.8,80.4,77.5,72.0,71.4,69.2,83,75,59,30.01,30.00,13,4,15,0.03
2013-4-11,86.5,81.2,75.3,73.3,71.7,70.6,86,73,62,30.02,29.90,20,5,20,0.00
2013-4-12,89.7,84.6,78.9,80.7,74.6,73.2,85,72,61,29.95,29.86,22,5,22,0.17
2013-4-13,85.2,80.1,75.5,75.5,72.5,69.6,92,78,65,29.98,29.89,17,3,17,0.07
2013-4-14,90.7,85.1,78.9,74.4,72.8,70.3,85,67,54,29.97,29.89,18,4,18,0.07
2013-4-15,94.2,82.1,72.5,76.6,73.5,69.1,93,77,50,30.06,29.93,17,3,17,0.17
2013-4-16,90.3,84.0,78.0,76.6,74.2,71.9,86,73,58,30.11,30.05,14,2,14,0.17
2013-4-17,89.0,82.9,73.9,71.5,70.0,68.2,90,66,53,30.11,30.02,16,3,16,0.00
2013-4-18,91.4,84.9,73.6,72.8,70.7,67.3,87,63,48,30.06,29.98,16,3,16,0.00
2013-4-20,94.0,82.2,72.7,75.6,71.7,65.8,95,73,42,30.04,29.94,33,3,33,1.09
2013-4-21,89.5,80.5,72.2,74.1,72.3,68.4,94,78,57,30.09,29.99,16,3,17,0.31
2013-4-22,85.7,74.3,69.2,72.2,69.8,66.5,95,87,61,30.06,29.92,17,2,17,0.78
2013-4-23,86.3,76.0,67.0,70.2,66.6,61.9,97,75,49,30.06,29.96,19,5,19,0.01
2013-4-24,87.3,82.0,76.8,65.7,64.6,63.7,65,56,47,30.11,30.07,10,2,10,0.00
2013-4-25,88.0,82.8,71.5,64.8,61.4,58.8,77,49,40,30.18,30.13,16,3,16,0.00
2013-4-26,87.3,81.8,72.8,65.7,64.3,61.3,75,56,46,30.22,30.16,16,3,16,0.00
2013-4-27,87.3,81.8,70.4,67.5,63.6,60.0,77,55,43,30.17,30.08,15,3,15,0.00
2013-4-28,84.5,80.7,76.2,64.3,63.1,61.7,63,55,49,30.02,30.00,11,2,15,0.00
2013-4-29,86.8,78.9,74.1,73.1,70.7,67.6,89,77,57,30.03,29.94,16,3,16,0.01
2013-4-30,84.9,76.1,70.2,73.1,70.4,68.1,95,83,64,30.01,29.95,21,2,21,0.92